www.pogodaiklimat.ru

Погода и климат >> Архив погоды >> Мексика >> Ла-Пас


ПОГОДА в Ла-Пасе

  • Прогноз погоды в Ла-Пасе
  • Монитор погоды в Ла-Пасе

АРХИВ ПОГОДЫ в Ла-Пасе

Время (UTC), дата Ветер
(напр.,м/с)
 
Видим.   Явления Облачность Т
(С)
Тd
(С)
f
(%)
Тe
(С)
Тes
(С)
Комфортность P
(гПа)
Po
(гПа)
Тmin
(С)
Tmax
(С)
R
(мм)
R24
(мм)
S
(см)
21 16.09 С 4 30 км 1/1 1200 м
[Sc diur, vesp]
+37.0 +23.3 46 +47 +57 опасность
перегрева
1009.6 1007.6
03 17.09 Ю 2 2000 м ясно +32.3 +23.5 60 +43 +43 опасность
перегрева
1009.6 1007.6
06 17.09 Ю 4 2000 м ясно +29.1 +22.8 69 +39 +39 очень
душно
1012.1 1010.1 +25.4 +37.7
09 17.09 Ю 3 2000 м ясно +27.2 +24.2 84 +38 +38 очень
душно
1011.6 1009.5
12 17.09 Ю 3 2000 м ясно +26.6 +24.3 87 +37 +37 очень
душно
1011.0 1009.0 +25.6 +37.9
15 17.09 Ю 3 30 км ясно +28.8 +22.6 69 +38 +41 очень
душно
1011.8 1009.8
18 17.09 З 2 30 км ясно +36.4 +20.0 38 +42 +58 опасность
перегрева
1011.0 1009.0 +25.6 +36.4
21 17.09 СЗ 4 30 км ясно +37.4 +23.1 44 +47 +57 опасность
перегрева
1009.2 1007.2
00 18.09 СЗ 3 30 км 1/1 1200 м
[Sc diur, vesp]
+36.8 +23.7 47 +48 +49 опасность
перегрева
1008.4 1006.4 +25.6 +38.0
03 18.09 ЮЗ 1 2000 м ясно +32.2 +25.5 68 +47 +47 опасность
перегрева
1009.6 1007.6
09 18.09 Ю 3 2000 м ясно +26.8 +25.1 90 +39 +39 очень
душно
1010.6 1008.5
12 18.09 Ю 3 2000 м ясно +26.6 +23.8 85 +37 +37 очень
душно
1010.0 1007.9 +25.6 +38.0
15 18.09 Ю 4 30 км ясно +29.0 +21.7 65 +37 +39 очень
душно
1010.7 1008.7
18 18.09 ЮЗ 3 30 км ясно +37.1 +21.5 41 +45 +58 опасность
перегрева
1010.5 1008.5 +25.6 +37.5
21 18.09 С 4 30 км 1/1 1200 м
[Sc diur, vesp]
+37.6 +23.7 45 +48 +57 опасность
перегрева
1008.5 1006.5
00 19.09 СЗ 2 30 км 1/1 1200 м
[Sc diur, vesp]
+37.6 +23.3 44 +48 +50 опасность
перегрева
1007.9 1005.9 +25.6 +39.1
03 19.09 Ю 2 2000 м 3/0
[Ci fib]
+32.0 +23.3 60 +43 +43 опасность
перегрева
1009.5 1007.5
06 19.09 Ю 3 2000 м 3/0
[Ci fib]
+28.9 +23.5 73 +39 +39 очень
душно
1010.6 1008.6 +39.0
09 19.09 Ю 3 2000 м 3/0
[Ac trans Ci fib]
+26.5 +24.9 91 +38 +38 очень
душно
1009.8 1007.8
12 19.09 Ю 3 2000 м 4/0
[Ci fib]
+25.6 +25.2 98 +37 +37 очень
душно
1008.9 1006.9 +24.6 +39.1
15 19.09 Ю 3 25 км 8/0
[Cs]
+27.6 +24.9 85 +39 +42 очень
душно
1009.2 1007.2
18 19.09 ЮЗ 1 30 км 8/0
[Ci fib]
+35.9 +24.0 50 +47 +63 опасность
перегрева
1008.4 1006.4 +24.6 +36.5
21 19.09 СЗ 4 30 км 8/0
[Cs]
+37.3 +24.5 48 +49 +58 опасность
перегрева
1006.7 1004.7
00 20.09 С 3 25 км 9/1 1200 м
[Sc diur, vesp As op Cs]
+36.0 +22.4 46 +45 +46 опасность
перегрева
1006.1 1004.1 +24.6 +37.9
03 20.09 Ю 3 2000 м 8/0
[Cs]
+31.0 +24.4 68 +43 +43 опасность
перегрева
1007.3 1005.3
06 20.09 ЮВ 2 2000 м 9/0 2000 м
[As trans Cs]
+29.1 +25.6 81 +43 +43 опасность
перегрева
1008.8 1006.8 +24.6 +37.9
12 20.09 ЮВ 1 2000 м 9/9 1200 м
[Sc diur, vesp]
+27.6 +25.3 87 +40 +40 очень
душно
1007.2 1005.2 +27.4 +37.9
15 20.09 Ю 1 25 км 9/3 1200 м
[Sc diur, vesp Ac As]
+29.4 +25.9 81 +44 +45 опасность
перегрева
1007.8 1005.8
18 20.09 СВ 3 25 км 9/3 1200 м
[Sc diur, vesp As trans]
+32.1 +26.3 72 +49 +53 опасность
перегрева
1008.1 1006.0 +27.4 +32.5
21 20.09 СВ 5 25 км 8/3 1200 м
[Sc diur, vesp As trans]
+32.2 +26.4 72 +49 +52 опасность
перегрева
1006.4 1004.4
00 21.09 СВ 4 25 км 9/6 1200 м
[Sc diur, vesp As op]
+29.6 +26.1 82 +45 +45 опасность
перегрева
1005.9 1003.9 +27.4 +33.5
03 21.09 С 6 2000 м в посл. час морось {дождь} 9/9 1000 м
[St As op]
+27.4 +26.8 97 +43 +43 опасность
перегрева
1005.0 1003.0
09 21.09 Ю 4 2000 м слаб. морось 10/10 1110 м
[]
+25.3 +26.2 100 +36 +36 очень
душно
1005.8 1003.8 4
12 21.09 Ю 4 2000 м в посл. час морось 9/9 1200 м
[Sc diur, vesp]
+25.9 +26.6 100 +38 +38 очень
душно
1007.1 1005.0 +23.8 +33.5 1
15 21.09 Ю 3 25 км 9/1 1200 м
[Sc diur, vesp Ac As]
+27.1 +25.5 91 +40 +41 очень
душно
1008.5 1006.5
18 21.09 ЮВ 3 25 км 9/6 1200 м
[Sc diur, vesp As op]
+30.4 +26.1 78 +46 +48 опасность
перегрева
1009.8 1007.8 +23.8 +30.8
21 21.09 Ю 3 25 км 9/5 1110 м
[Sc diur, vesp As op]
+33.4 +25.1 62 +47 +50 опасность
перегрева
1008.0 1006.0
00 22.09 СВ 1 25 км в посл. час дождь {морось} 9/8 1200 м
[Sc diur, vesp As op]
+31.0 +26.3 76 +47 +47 опасность
перегрева
1007.6 1005.6 +23.8 +34.1 0.0
03 22.09 ЮЗ 1 2000 м 6/6 1200 м
[Sc diur, vesp]
+30.0 +25.2 76 +44 +44 опасность
перегрева
1008.8 1006.7
06 22.09 В 1 2000 м 1/1 1200 м
[Sc diur, vesp]
+28.8 +25.1 80 +42 +42 опасность
перегрева
1009.0 1007.0 +23.8 +34.1
09 22.09 В 1 2000 м 4/0
[Ac trans Ci fib]
+27.9 +24.8 83 +40 +40 очень
душно
1008.5 1006.5
12 22.09 ЮВ 1 2000 м 1/0 2000 м
[Ac trans]
+27.0 +24.4 86 +38 +38 очень
душно
1009.3 1007.2 +26.2 +34.1
15 22.09 СЗ 1 30 км ясно +29.4 +23.8 72 +40 +44 очень
душно
1010.4 1008.3
18 22.09 ЮВ 5 30 км 4/4 1200 м
[Sc diur, vesp]
+33.9 +24.2 57 +46 +51 опасность
перегрева
1010.6 1008.6 +26.2 +33.9
21 22.09 ЮВ 3 30 км 6/6 1200 м
[Sc diur, vesp]
+35.4 +24.9 55 +49 +54 опасность
перегрева
1008.4 1006.6
00 23.09 Ю 5 30 км 8/8 1020 м
[Sc diur, vesp]
+32.2 +25.5 68 +47 +47 опасность
перегрева
1008.9 1007.1 +26.2 +36.4 1
03 23.09 Ю 5 2000 м 5/3 1020 м
[Sc Ac und]
+29.2 +24.8 77 +42 +42 опасность
перегрева
1011.1 1009.2 0.0
09 23.09 Ю 3 2000 м 9/9 1110 м
[]
+27.9 +24.1 80 +39 +39 очень
душно
1012.3 1010.2
12 23.09 Ю 2 2000 м ясно +27.1 +24.1 84 +38 +38 очень
душно
1012.0 1009.9 +26.2 +36.4
15 23.09 ЮВ 2 30 км ясно +28.5 +24.5 79 +40 +43 очень
душно
1013.6 1011.5
18 23.09 З 3 30 км 4/4 1020 м
[Sc diur, vesp]
+32.5 +25.0 65 +46 +54 опасность
перегрева
1013.5 1011.5 +26.2 +33.1

 

Местоположение метеостанции Ла-Пас (Мексика): широта 24.17 долгота -110.30 высота над уровнем моря 18 м.

В архиве по умолчанию представлена погода в Ла-Пасе за последнюю неделю. Архивные данные за месяц целиком и за предыдущие месяцы, начиная с января 2011 года, Вы можете получить, выбрав интересующий диапазон дат из раскрывающегося списка и нажав кнопку "Ввод!".


*Определитесь, кто Вы:
робот инопланетянин человек

Внимание! Время в таблицах - всемирное. Для получения местного времени необходимо прибавить поправку, которая равна -6 ч.

Смотрите также архив погоды в соседних городах и на ближайших метеорологических станциях:

Погода в Сьюдад-Конститусьоне (Мексика) (166 км)
Погода в Лорето (Мексика) (229 км)
Погода в Кульякане (Мексика) (302 км)
Погода в Чойсе (Мексика) (354 км)
Погода в Сьюдад-Обрегоне (Мексика) (361 км)
Погода в Санта-Розалии (Мексика) (397 км)
Погода в Мазатлане (Мексика) (412 км)
Погода в Гуаймасе (Мексика) (421 км)
Погода в Эмпальме (Мексика) (422 км)
Погода в Тепеуанесе (Мексика) (481 км)

Пояснения к столбцам:

Ветер - указаны скорость ветра в м/с - средняя за 10 мин, порывы в срок и между сроками (в фигурных скобках) и направление, откуда дует ветер: С - северный, СВ - северо-восточный, В - восточный, ЮВ - юго-восточный, Ю - южный, ЮЗ - юго-западный, З - западный, СЗ - северо-западный.
Видимость - горизонтальная дальность видимости в метрах или километрах. При видимости от 1 до 10 км при отсутствии осадков обычно наблюдается дымка, при ухудшении видимости до 1 км и менее - туман. В сухую погоду видимость может ухудшаться дымом, пылью или мглою.
Явления - указаны атмосферные явления, наблюдавшиеся в срок или в последний час перед сроком; фигурными скобками обозначены явления, наблюдавшиеся между сроками (за 1-3 часа до срока); квадратными скобками обозначены град или гололедные отложения с указанием их диаметра в мм.
Облачность - указаны через наклонную черту общая и нижняя облачность в баллах и высота нижней границы облаков в метрах; квадратными скобками обозначены формы облаков: Ci - перистые, Cs - перисто-слоистые, Cc - перисто-кучевые, Ac - высококучевые, As - высокослоистые, Sc - слоисто-кучевые, Ns - слоисто-дождевые, Cu - кучевые, Cb - кучево-дождевые. Подробнее классификацию облаков см. в Атласе облаков (PDF).
T - Температура воздуха - температура, измеренная на высоте 2 м над землей.
Td - Температура точки росы - температура, при понижении до которой содержащийся в воздухе водяной пар достигнет насыщения.
f - Относительная влажность воздуха - влажноcть воздуха, измеренная на высоте 2 м над землей.
Te - Эффективная температура - температура, которую ощущает одетый по сезону человек в тени. Характеристика душности погоды. При расчете учитывается влияние влажности воздуха и скорости ветра на теплоощущения человека.
Tes - Эффективная температура на солнце - температура, которую ощущает человек, с поправкой на солнечный нагрев. Характеристика знойности погоды. Зависит от высоты солнца над горизонтом, облачности и скорости ветра. Ночью, в пасмурную погоду, а также при ветре 12 м/с и более поправка равна нулю.
P - Атмосферное давление - приведенное к уровню моря атмосферное давление.
Po - Атмосферное давление - измеренное на уровне метеостанции атмосферное давление.
Tmin - Минимальная температура - минимум температуры воздуха на высоте 2 м над землей.
Tmax - Максимальная температура - максимум температуры воздуха на высоте 2 м над землей.
R - Количество осадков - Количество выпавших осадков за период времени, мм. При наведении курсора мыши на число - период времени, за который выпало указанное количество осадков.
R24 - Количество осадков - Количество выпавших осадков за 24 часа, мм.
S - Снежный покров - Высота снежного покрова, см. При наведении курсора мыши на число - состояние снежного покрова и степень покрытия местности в баллах.